User: anonymous   Login
Location: Unspecified
(0.0000°N, 0.0000°E)
Time: 09:56:39
(UTC+00:00)
Language:

GSAT 7 - Orbit

View from above orbital plane
View from above orbital plane
View from above satellite
View from above satellite

Ground track
Ground track

The orbit data is extracted from the following two-line orbital elements,

1 39234U 13044B   16345.57262414 -.00000074  00000-0  00000+0 0  9994
2 39234   0.0942  98.6463 0013255 171.9190  89.3011  1.00271083 12050
Epoch (UTC): 10 December 2016 13:44:34
Eccentricity: 0.0013255
inclination: 0.0942°
perigee height: 35730 km
apogee height: 35842 km
right ascension of ascending node: 98.6463°
argument of perigee: 171.9190°
revolutions per day: 1.00271083
mean anomaly at epoch: 89.3011°
orbit number at epoch: 1205

The dashed part of the orbit path shows where the satellite is in the earth's shadow,  

DLR